Regional Weather Roundup
Issued by NWS

Home | Current Version | Previous Version | Text Only | Print | Product List | Glossary Off
Versions: 1 2 3 4 5 6 7 8 9 10 11 12 13 14 15 16 17 18 19 20 21 22 23 24 25 26 27 28 29 30 31 32 33 34 35 36 37 38 39 40 41 42 43 44 45 46 47 48 49 50

000
ASUS43 KLMK 301110
RWRKY
KENTUCKY REGIONAL WEATHER ROUNDUP
NATIONAL WEATHER SERVICE LOUISVILLE KY
700 AM EDT SAT AUG 30 2014

NOTE "FAIR" INDICATES FEW OR NO CLOUDS BELOW 12,000 FEET
WITH NO SIGNIFICANT WEATHER AND/OR OBSTRUCTIONS TO VISIBILITY.

KYZ001>023-026-027-061>063-070>075-301200-
WESTERN AND SOUTH CENTRAL KENTUCKY

CITY           SKY/WX    TMP DP  RH WIND       PRES   REMARKS
PADUCAH        CLOUDY    74  70  87 CALM      29.99R
HENDERSON      CLOUDY    73  66  78 S5        30.00S
OWENSBORO      NOT AVBL
HOPKINSVILLE   MOCLDY    74  66  76 S3        30.03R
BOWLING GREEN  PTCLDY    70  65  84 CALM      30.05R
GLASGOW        PTCLDY    70  62  76 CALM      30.06S
$$

KYZ024-025-028>034-038-045-046-053-301200-
NORTH CENTRAL KENTUCKY

CITY           SKY/WX    TMP DP  RH WIND       PRES   REMARKS
LOUISVILLE/SDF MOCLDY    71  64  78 SE6       30.03S
LOUISVILLE/LOU PTCLDY    71  64  78 CALM      30.04S
FORT KNOX      MOCLDY    70  64  83 S5        30.04R
$$

KYZ035>037-039>044-047>052-055>060-089>105-301200-
NORTHEAST KENTUCKY

CITY           SKY/WX    TMP DP  RH WIND       PRES   REMARKS
LEXINGTON      CLEAR     72  65  78 SE6       30.08S
COVINGTON      MOCLDY    71  65  81 S7        30.06R
FRANKFORT      CLEAR     68  65  90 SE3       30.06S
$$

KYZ054-064>069-076>088-106>120-301200-
SOUTHEAST KENTUCKY

CITY           SKY/WX    TMP DP  RH WIND       PRES   REMARKS
JACKSON        CLEAR     72  66  81 VRB3      30.14R
LONDON         CLEAR     70  66  87 SE3       30.14R
SOMERSET       PTCLDY    70  64  83 CALM      30.12R
MIDDLESBORO    CLEAR     64  64  97 CALM      30.17S
MONTICELLO     SUNNY     73  65  76 SE8       30.12R
$$



USA.gov is the U.S. government's official web portal to all federal, state and local government web resources and services.